• In Belgium
  • List of Countries
  • For 7 days
  • Water Temperature
  • Satellite Maps
  • Weather Map
  • Weather Widgets
  • user-avatar
    Login

    Hourly Weather Podele

    Today, 17 July, Tuesday

    Time Temperature Precipitation Wind Pressure Humidity
    00:00 +19°C° 0 mm 3 mps 741 mmHg 94%
    01:00 +19°C° 0 mm 3 mps 741 mmHg 94%
    02:00 +19°C° 0 mm 3 mps 741 mmHg 95%
    03:00 +19°C° 0 mm 3 mps 741 mmHg 93%
    04:00 +19°C° 0 mm 4 mps 741 mmHg 92%
    05:00 +20°C° 0 mm 4 mps 741 mmHg 90%
    06:00 +21°C° 0 mm 4 mps 741 mmHg 84%
    07:00 +22°C° 0 mm 5 mps 741 mmHg 78%
    08:00 +25°C° 0 mm 5 mps 741 mmHg 73%
    09:00 +26°C° 0 mm 5 mps 741 mmHg 69%
    10:00 +27°C° 0 mm 6 mps 741 mmHg 65%
    11:00 +28°C° 0 mm 6 mps 740 mmHg 61%
    12:00 +28°C° 0.1 mm 6 mps 740 mmHg 61%
    13:00 +28°C° 0.1 mm 6 mps 740 mmHg 60%
    14:00 +28°C° 0.1 mm 6 mps 740 mmHg 60%
    15:00 +28°C° 0.2 mm 6 mps 740 mmHg 63%
    16:00 +27°C° 0.2 mm 5 mps 739 mmHg 66%
    17:00 +27°C° 0.2 mm 5 mps 739 mmHg 70%
    18:00 +25°C° 0 mm 4 mps 739 mmHg 72%
    19:00 +23°C° 0 mm 4 mps 739 mmHg 75%
    20:00 +22°C° 0 mm 4 mps 739 mmHg 78%
    21:00 +21°C° 0 mm 4 mps 739 mmHg 79%
    22:00 +21°C° 0 mm 4 mps 739 mmHg 80%
    23:00 +20°C° 0 mm 4 mps 738 mmHg 80%

    Tomorrow, 18 July, Wednesday

    Time Temperature Precipitation Wind Pressure Humidity
    00:00 +20°C° 0 mm 4 mps 738 mmHg 83%
    01:00 +20°C° 0 mm 4 mps 738 mmHg 86%
    02:00 +19°C° 0 mm 4 mps 738 mmHg 89%
    03:00 +19°C° 0.5 mm 4 mps 738 mmHg 91%
    04:00 +19°C° 0.5 mm 5 mps 738 mmHg 93%
    05:00 +19°C° 0.5 mm 5 mps 738 mmHg 94%
    06:00 +19°C° 0.1 mm 5 mps 738 mmHg 92%
    07:00 +20°C° 0.1 mm 5 mps 738 mmHg 90%
    08:00 +20°C° 0.1 mm 5 mps 738 mmHg 88%
    09:00 +22°C° 0.2 mm 5 mps 738 mmHg 83%
    10:00 +23°C° 0.2 mm 6 mps 738 mmHg 78%
    11:00 +24°C° 0.2 mm 6 mps 738 mmHg 73%
    12:00 +26°C° 0.6 mm 6 mps 738 mmHg 73%
    13:00 +26°C° 0.6 mm 6 mps 738 mmHg 73%
    14:00 +26°C° 0.6 mm 5 mps 738 mmHg 73%
    15:00 +25°C° 0.5 mm 5 mps 737 mmHg 76%
    16:00 +25°C° 0.5 mm 5 mps 737 mmHg 79%
    17:00 +23°C° 0.5 mm 5 mps 737 mmHg 82%
    18:00 +22°C° 0.1 mm 5 mps 737 mmHg 84%
    19:00 +21°C° 0.1 mm 4 mps 737 mmHg 86%
    20:00 +20°C° 0.1 mm 4 mps 737 mmHg 88%
    21:00 +20°C° 0 mm 4 mps 737 mmHg 89%
    22:00 +19°C° 0 mm 4 mps 737 mmHg 91%
    23:00 +19°C° 0 mm 4 mps 737 mmHg 92%

    Day after tomorrow, 19 July, Thursday

    Time Temperature Precipitation Wind Pressure Humidity
    00:00 +19°C° 0 mm 4 mps 737 mmHg 92%
    01:00 +19°C° 0 mm 4 mps 737 mmHg 93%
    02:00 +19°C° 0 mm 4 mps 737 mmHg 93%
    03:00 +19°C° 0.1 mm 4 mps 737 mmHg 93%
    04:00 +19°C° 0.1 mm 5 mps 737 mmHg 94%
    05:00 +19°C° 0.1 mm 5 mps 737 mmHg 94%
    06:00 +19°C° 0.1 mm 5 mps 737 mmHg 93%
    07:00 +19°C° 0.1 mm 5 mps 737 mmHg 92%
    08:00 +20°C° 0.1 mm 5 mps 737 mmHg 91%
    09:00 +20°C° 0.1 mm 5 mps 737 mmHg 89%
    10:00 +21°C° 0.1 mm 5 mps 737 mmHg 87%
    11:00 +21°C° 0.1 mm 6 mps 737 mmHg 85%
    12:00 +21°C° 0.4 mm 6 mps 737 mmHg 85%
    13:00 +21°C° 0.4 mm 6 mps 737 mmHg 85%
    14:00 +21°C° 0.4 mm 6 mps 737 mmHg 86%
    15:00 +21°C° 0.5 mm 6 mps 737 mmHg 87%
    16:00 +21°C° 0.5 mm 5 mps 737 mmHg 88%
    17:00 +21°C° 0.5 mm 5 mps 737 mmHg 89%
    18:00 +21°C° 0.5 mm 5 mps 737 mmHg 91%
    19:00 +20°C° 0.5 mm 4 mps 737 mmHg 92%
    20:00 +20°C° 0.5 mm 4 mps 737 mmHg 94%
    21:00 +20°C° 0.1 mm 4 mps 737 mmHg 95%
    22:00 +19°C° 0.1 mm 4 mps 737 mmHg 96%
    23:00 +19°C° 0.1 mm 4 mps 737 mmHg 96%

    20 July, Friday

    Time Temperature Precipitation Wind Pressure Humidity
    00:00 +19°C° 0 mm 4 mps 737 mmHg 97%
    01:00 +19°C° 0 mm 3 mps 737 mmHg 97%
    02:00 +18°C° 0 mm 3 mps 737 mmHg 97%
    03:00 +19°C° 0 mm 4 mps 737 mmHg 97%
    04:00 +19°C° 0 mm 4 mps 737 mmHg 97%
    05:00 +19°C° 0 mm 4 mps 737 mmHg 96%
    06:00 +19°C° 0 mm 4 mps 737 mmHg 95%
    07:00 +20°C° 0 mm 4 mps 738 mmHg 94%
    08:00 +20°C° 0 mm 4 mps 738 mmHg 93%
    09:00 +21°C° 0.2 mm 4 mps 738 mmHg 91%
    10:00 +22°C° 0.2 mm 4 mps 738 mmHg 90%
    11:00 +22°C° 0.2 mm 4 mps 738 mmHg 88%
    12:00 +22°C° 1 mm 4 mps 738 mmHg 89%
    13:00 +22°C° 1 mm 4 mps 738 mmHg 90%
    14:00 +22°C° 1 mm 4 mps 738 mmHg 91%
    15:00 +23°C° 0.6 mm 4 mps 738 mmHg 89%
    16:00 +23°C° 0.6 mm 4 mps 737 mmHg 88%
    17:00 +23°C° 0.6 mm 4 mps 737 mmHg 87%
    18:00 +22°C° 0.3 mm 4 mps 737 mmHg 88%
    19:00 +21°C° 0.3 mm 3 mps 737 mmHg 90%
    20:00 +21°C° 0.3 mm 3 mps 737 mmHg 92%
    21:00 +20°C° 0 mm 3 mps 736 mmHg 93%
    22:00 +20°C° 0 mm 3 mps 736 mmHg 95%
    23:00 +19°C° 0 mm 2 mps 736 mmHg 96%

    21 July, Saturday

    Time Temperature Precipitation Wind Pressure Humidity
    00:00 +19°C° 0.2 mm 2 mps 736 mmHg 97%
    01:00 +19°C° 0.2 mm 2 mps 736 mmHg 97%
    02:00 +19°C° 0.2 mm 2 mps 736 mmHg 97%
    03:00 +19°C° 0 mm 3 mps 736 mmHg 97%
    04:00 +19°C° 0 mm 3 mps 736 mmHg 97%
    05:00 +19°C° 0 mm 3 mps 736 mmHg 97%
    06:00 +20°C° 0 mm 3 mps 736 mmHg 93%
    07:00 +22°C° 0 mm 3 mps 736 mmHg 90%
    08:00 +24°C° 0 mm 3 mps 736 mmHg 87%
    09:00 +25°C° 0.3 mm 3 mps 736 mmHg 83%
    10:00 +26°C° 0.3 mm 3 mps 737 mmHg 80%
    11:00 +27°C° 0.3 mm 3 mps 737 mmHg 76%
    12:00 +27°C° 1.2 mm 3 mps 736 mmHg 76%
    13:00 +28°C° 1.2 mm 3 mps 736 mmHg 76%
    14:00 +28°C° 1.2 mm 3 mps 736 mmHg 77%
    15:00 +27°C° 1.6 mm 3 mps 736 mmHg 80%
    16:00 +27°C° 1.6 mm 3 mps 736 mmHg 82%
    17:00 +26°C° 1.6 mm 2 mps 736 mmHg 85%
    18:00 +25°C° 0.4 mm 2 mps 736 mmHg 88%
    19:00 +24°C° 0.4 mm 2 mps 736 mmHg 90%
    20:00 +23°C° 0.4 mm 2 mps 736 mmHg 92%
    21:00 +21°C° 0 mm 2 mps 736 mmHg 93%
    22:00 +21°C° 0 mm 2 mps 736 mmHg 95%
    23:00 +20°C° 0 mm 2 mps 736 mmHg 96%

    22 July, Sunday

    Time Temperature Precipitation Wind Pressure Humidity
    00:00 +20°C° 0 mm 2 mps 736 mmHg 97%
    01:00 +20°C° 0 mm 2 mps 736 mmHg 97%
    02:00 +19°C° 0 mm 2 mps 736 mmHg 98%
    03:00 +20°C° 0 mm 2 mps 737 mmHg 98%
    04:00 +20°C° 0 mm 2 mps 737 mmHg 97%
    05:00 +20°C° 0 mm 2 mps 737 mmHg 97%
    06:00 +21°C° 0 mm 2 mps 737 mmHg 93%
    07:00 +23°C° 0 mm 2 mps 737 mmHg 89%
    08:00 +25°C° 0 mm 2 mps 737 mmHg 86%
    09:00 +26°C° 0.2 mm 2 mps 737 mmHg 81%
    10:00 +27°C° 0.2 mm 2 mps 738 mmHg 76%
    11:00 +28°C° 0.2 mm 2 mps 738 mmHg 71%
    12:00 +28°C° 0.2 mm 2 mps 738 mmHg 68%
    13:00 +29°C° 0.2 mm 2 mps 738 mmHg 65%
    14:00 +30°C° 0.2 mm 1 mps 738 mmHg 62%
    15:00 +29°C° 0.4 mm 1 mps 738 mmHg 66%
    16:00 +29°C° 0.4 mm 1 mps 738 mmHg 69%
    17:00 +29°C° 0.4 mm 1 mps 738 mmHg 72%
    18:00 +27°C° 0.7 mm 1 mps 738 mmHg 77%
    19:00 +25°C° 0.7 mm 1 mps 738 mmHg 83%
    20:00 +24°C° 0.7 mm 1 mps 738 mmHg 88%
    21:00 +23°C° 0.3 mm 1 mps 738 mmHg 90%
    22:00 +23°C° 0.3 mm 1 mps 738 mmHg 91%
    23:00 +20°C° 0.3 mm 0 mps 739 mmHg 93%
    Show more